Flag for Spain Weather past 2 weeks in Bilbao, Spain

Now
73 °F

Passing clouds.


Feels Like: 77 °F
Forecast: 56 / 69 °F
Wind: 9 mph from West

Location: Bilbao / Sondica

Current Time: Apr 25, 2015 at 2:45:10 PM

Latest Report: Apr 25, 2015 at 2:00 PM


Visibility: N/A

Pressure: 29.86 "Hg

Humidity: 47%

Dew point: 52 °F

Location of BilbaoLocation

Historic Weather in Bilbao — Graph

°F

Bilbao temperature yesterday

Maximum temperature yesterday: 73 °F (at 1:30 PM)
Minimum temperature yesterday: 52 °F (at 5:00 AM)
Average temperature yesterday: 61 °F

Past Weeks' High & Low Weather Summary

 TemperatureHumidityPressure
High86 °F (Apr 14, 3:00 PM)100% (Apr 10, 10:00 PM)30.36 "Hg (Apr 10, 10:00 PM)
Low46 °F (Apr 12, 5:00 AM)15% (Apr 14, 2:00 PM)29.86 "Hg (Apr 25, 1:30 PM)
Average64 °F65%30.10 "Hg
* Reported Apr 10 2:00 PM — Apr 25 2:00 PM, Bilbao, Weather by CustomWeather, © 2015

Note: Actual official high and low records may vary slightly from our data, if they occured in-between our weather recording intervals... More about our weather records

Advertising

Bilbao weather history for previous 24 hours

 ConditionsComfort  
Time TempWeatherWind HumidityBarometerVisibility
2:00 PM
Sat, Apr 25
73 °FPassing clouds.9 mph47%29.86 "HgN/A
1:30 PM73 °FPassing clouds.9 mph47%29.86 "HgN/A
1:00 PM73 °FPassing clouds.10 mph41%29.89 "HgN/A
12:30 PM72 °FPassing clouds.9 mph47%29.89 "HgN/A
12:00 PM72 °FPassing clouds.12 mph47%29.89 "HgN/A
11:30 AM70 °FPassing clouds.6 mph50%29.89 "HgN/A
11:00 AM68 °FPassing clouds.10 mph56%29.89 "HgN/A
10:30 AM66 °FPassing clouds.3 mph60%29.89 "HgN/A
10:00 AM64 °FSunny.2 mph73%29.89 "Hg10 mi
9:30 AM61 °FSunny.3 mph94%29.92 "Hg10 mi
9:00 AM57 °FPassing clouds.5 mph100%29.89 "HgN/A
8:30 AM55 °FPassing clouds.2 mph100%29.89 "Hg5 mi
8:00 AM55 °FPassing clouds.3 mph100%29.89 "Hg5 mi
7:48 AM55 °FPassing clouds.2 mph100%29.89 "Hg4 mi
7:30 AM55 °FFog.1 mph94%29.89 "Hg1 mi
7:00 AM55 °FFog.2 mph100%29.89 "Hg1 mi
6:30 AM55 °FPassing clouds.2 mph100%29.89 "Hg4 mi
6:00 AM55 °FPassing clouds.1 mph100%29.89 "HgN/A
5:30 AM55 °FPassing clouds.No wind100%29.89 "HgN/A
5:00 AM57 °FClear.No wind94%29.89 "Hg10 mi
11:30 PM
Fri, Apr 24
57 °FPassing clouds.3 mph94%29.92 "Hg6 mi
11:00 PM59 °FPassing clouds.2 mph88%29.92 "Hg6 mi
10:30 PM59 °FPassing clouds.2 mph88%29.92 "Hg6 mi
10:00 PM59 °FScattered clouds.1 mph88%29.92 "Hg6 mi
9:30 PM59 °FScattered clouds.3 mph88%29.92 "Hg6 mi
9:00 PM59 °FScattered clouds.1 mph88%29.89 "HgN/A
8:30 PM61 °FScattered clouds.1 mph83%29.89 "HgN/A
8:00 PM61 °FPartly sunny.1 mph83%29.92 "HgN/A
7:30 PM61 °FScattered clouds.2 mph83%29.92 "HgN/A
7:00 PM61 °FPassing clouds.7 mph83%29.92 "HgN/A
6:30 PM61 °FPassing clouds.6 mph83%29.92 "Hg6 mi
6:00 PM61 °FPassing clouds.6 mph83%29.92 "Hg6 mi
5:30 PM61 °FPassing clouds.6 mph83%29.92 "HgN/A
5:00 PM61 °FPassing clouds.10 mph83%29.92 "HgN/A
4:30 PM63 °FSunny.9 mph77%29.92 "Hg10 mi
4:00 PM64 °FSunny.8 mph73%29.92 "Hg10 mi
3:30 PM64 °FPassing clouds.9 mph73%29.92 "HgN/A
3:00 PM64 °FPassing clouds.8 mph73%29.92 "HgN/A
2:30 PM64 °FSunny.9 mph78%29.92 "Hg10 mi
2:00 PM70 °FSunny.2 mph64%29.92 "Hg10 mi
Weather by CustomWeather, © 2015

See weather overviewHow to use our weather pages